Wind_Speed
41 40 40 39 38 38 38 38 37 37 38 38 38 38 37 38 38 39 40 40 41 42 43 43 44 44 45 45 46 47 47 47 48 48 48 48 47 46 45 45 44 43 41
41 40 39 38 38 38 38 39 39 39 39 39 40 40 40 40 40 41 42 43 44 45 45 46 46 47 48 48 49 49 50 50 51 52 52 52 50 49 49 48 48 46 45
41 39 39 38 38 38 39 39 39 39 39 40 41 41 41 41 42 43 44 44 46 46 47 48 49 49 50 51 51 52 53 53 54 55 56 55 54 53 52 51 50 49 48
41 40 39 38 38 38 38 38 38 39 39 40 41 42 42 43 43 44 45 45 46 47 49 50 51 52 52 53 54 55 55 56 57 57 58 58 57 57 55 53 52 52 51
40 39 39 38 38 38 38 38 38 38 39 40 41 42 43 43 44 45 45 46 47 48 49 51 52 53 54 55 56 57 58 59 59 59 59 59 59 59 58 56 55 54 54
39 38 38 38 37 37 37 38 38 38 39 40 41 41 42 43 44 45 46 46 47 48 49 51 52 53 55 57 58 59 60 61 61 62 61 61 61 60 58 58 57 56 55
39 39 38 38 38 37 38 38 38 38 39 39 40 41 41 42 43 44 45 45 46 47 49 50 52 54 55 57 58 60 61 62 62 62 62 61 61 60 59 59 57 56 55
37 38 37 37 37 38 38 37 37 38 38 38 39 40 40 41 41 42 43 44 45 47 48 49 51 53 54 56 57 59 60 60 60 60 60 60 60 60 59 59 58 56 55
36 36 36 37 37 37 37 37 37 37 37 38 38 39 39 39 40 40 41 43 44 45 47 48 50 51 52 54 55 56 57 57 57 57 57 58 58 58 58 57 57 57 57
35 35 35 36 36 36 36 36 36 36 36 37 37 37 37 37 38 39 40 41 42 43 45 46 48 49 51 53 53 54 54 54 54 54 54 55 56 56 55 55 55 56 57
34 35 35 35 35 35 35 35 35 35 35 35 35 35 35 36 36 37 37 38 40 42 43 43 45 47 49 50 50 50 50 49 49 48 49 49 50 51 52 53 53 55 55
33 34 34 34 34 34 34 34 34 34 34 34 33 33 33 33 34 35 35 36 37 38 39 41 42 44 45 45 45 44 44 44 43 42 42 43 44 45 46 48 49 49 50
31 32 32 32 32 32 32 32 32 32 31 31 31 31 31 32 32 32 32 33 34 35 36 38 39 40 41 41 39 37 37 37 37 36 36 36 38 39 40 42 43 44 46
28 29 29 29 29 29 29 29 29 29 29 29 29 29 29 29 29 29 30 31 32 32 34 35 36 37 37 36 35 33 32 31 30 30 31 32 33 34 35 36 38 39 41
26 26 26 26 26 26 27 27 27 27 27 27 27 27 27 27 27 27 28 29 30 30 31 32 33 33 32 31 30 29 28 26 26 25 26 27 29 29 31 32 33 36 38
24 24 24 24 25 25 25 25 25 25 25 25 25 25 25 25 25 26 27 28 28 29 29 30 30 30 29 28 27 26 25 23 23 23 23 24 24 26 27 30 32 34 37
23 23 23 23 23 23 23 23 24 24 23 23 22 23 23 24 25 25 26 26 27 28 28 28 27 26 26 25 24 23 21 20 20 19 20 21 23 24 25 28 30 33 36
21 21 21 21 21 21 21 21 21 22 22 22 22 22 23 23 24 24 25 25 26 26 27 26 25 24 23 22 22 20 19 19 19 20 20 21 22 24 26 29 31 33 36
20 20 20 20 20 20 20 20 20 21 21 21 22 22 22 23 23 24 24 24 25 25 25 24 24 23 22 21 21 20 20 20 20 20 21 23 24 26 28 30 32 35 37
18 18 18 18 19 19 19 19 19 20 20 21 21 21 22 22 23 23 23 23 23 23 23 23 22 22 22 21 21 21 21 22 22 23 25 27 28 30 31 33 35 38 40
17 17 18 18 18 18 18 18 18 19 20 20 21 21 21 21 21 22 22 22 22 22 22 22 22 22 22 22 22 23 23 24 25 26 28 29 31 33 35 37 39 40 42
17 17 17 17 17 17 17 18 18 18 19 19 20 20 20 20 20 21 21 21 21 21 21 21 21 22 22 23 24 25 26 27 28 29 31 32 34 35 37 39 41 43 45
18 17 17 17 17 18 18 18 18 18 19 19 19 19 19 19 20 20 20 21 21 21 21 22 22 23 24 25 26 27 28 29 30 31 33 35 36 38 40 42 43 45 46
18 18 17 17 18 18 18 19 18 18 18 18 18 19 19 20 20 20 21 21 21 22 22 23 24 25 25 26 28 29 30 31 32 34 36 37 39 40 42 44 45 47 48
18 18 18 18 18 18 18 18 18 18 18 19 19 19 20 20 21 21 22 22 23 23 24 25 25 26 27 28 29 31 32 33 34 36 38 40 41 42 44 45 47 48 48
19 19 19 18 18 18 18 18 18 18 19 19 20 20 21 21 22 22 23 24 24 25 25 26 27 28 29 30 31 32 33 35 36 38 40 41 42 43 45 47 48 48 47
Wind_Direction
238 239 241 244 246 249 251 254 257 259 262 265 267 269 271 273 276 279 282 283 284 284 284 284 284 284 284 284 283 283 282 282 281 281 280 279 279 279 280 279 278 278 278
239 241 243 245 247 249 252 255 257 259 262 264 266 268 270 272 275 277 280 281 282 282 283 284 284 284 284 283 283 282 282 281 281 280 280 279 279 279 278 278 278 277 278
240 242 244 246 249 251 252 255 257 259 261 263 265 268 270 273 275 276 278 279 281 282 283 283 283 283 283 282 282 282 281 280 279 279 279 279 278 277 276 277 277 277 277
242 244 246 248 250 252 253 255 257 259 261 263 266 269 271 273 275 276 277 278 279 280 281 282 282 282 283 283 282 281 280 280 279 278 278 278 277 276 276 275 275 276 277
243 245 247 249 251 253 254 256 258 260 262 264 266 269 272 274 275 276 278 278 279 280 281 281 282 282 282 282 282 281 281 280 279 278 277 276 276 275 275 275 274 275 275
244 246 248 250 252 254 256 258 259 261 263 265 267 270 272 274 275 276 278 279 280 281 281 282 282 282 282 282 282 281 281 280 279 277 276 275 274 273 273 273 273 274 274
244 246 249 251 253 255 257 259 261 263 265 267 269 271 272 274 275 277 278 280 281 282 283 283 283 284 283 283 282 282 281 280 278 277 275 274 272 271 270 270 271 272 273
244 247 249 252 254 256 258 260 262 264 266 268 270 271 273 275 276 278 280 281 283 284 285 285 286 286 285 285 284 283 282 280 279 277 276 274 272 270 268 268 268 270 271
245 247 250 252 254 256 258 260 263 265 266 268 270 272 274 276 277 280 282 284 285 286 288 289 289 289 288 288 287 286 283 280 279 278 276 273 272 270 268 267 266 267 269
244 246 249 251 253 256 258 260 263 265 267 269 271 273 275 277 279 282 285 286 288 290 291 292 292 292 291 291 290 288 285 282 280 277 275 273 272 270 267 265 265 265 267
243 245 248 251 253 256 258 261 263 265 268 270 272 274 277 279 282 285 287 290 292 293 295 296 296 296 296 295 293 290 287 283 281 279 276 274 272 270 267 265 265 265 266
242 244 247 249 252 255 258 261 263 266 269 271 273 276 278 281 285 288 291 292 294 296 299 300 300 300 300 299 297 294 290 286 282 280 276 274 272 269 268 267 266 266 268
243 245 247 250 253 256 259 262 265 268 270 272 274 276 280 284 287 290 292 294 297 300 303 304 304 304 304 303 301 299 296 290 285 281 276 275 274 271 269 268 267 267 269
244 247 249 252 255 258 261 264 266 269 271 273 274 277 282 285 288 290 293 297 300 303 306 308 308 309 308 306 303 302 299 296 290 285 281 278 276 273 270 269 269 270 271
247 250 253 255 258 260 263 265 267 269 271 273 275 278 282 284 287 291 296 299 302 306 309 310 311 312 312 310 307 306 303 299 296 293 287 281 278 276 273 273 273 273 275
250 252 255 257 259 261 263 266 268 270 272 273 275 278 280 284 288 293 299 301 303 306 310 313 315 315 314 314 312 309 305 303 300 297 293 287 283 283 280 279 278 279 280
251 252 255 257 259 262 264 267 268 269 270 272 275 278 281 285 290 295 299 302 304 307 310 311 314 317 317 318 317 316 314 311 308 305 299 295 293 292 289 286 285 285 285
250 252 254 256 259 262 265 267 268 268 268 270 275 279 283 286 291 295 299 302 305 308 311 313 314 316 319 321 322 320 317 313 312 308 304 303 301 299 296 293 293 293 292
250 252 254 257 260 264 267 268 269 268 268 270 276 281 283 286 291 295 299 302 305 308 311 313 314 315 317 318 319 320 318 315 314 312 309 307 306 304 303 301 299 298 297
250 253 255 258 262 264 266 269 269 269 270 273 279 282 284 287 291 295 298 302 305 309 311 314 315 315 315 316 318 318 317 315 313 312 311 310 309 307 306 304 303 302 301
251 253 257 260 264 266 267 270 272 273 274 276 280 283 285 288 292 295 298 302 306 308 311 312 314 315 315 316 317 318 317 317 316 315 314 312 311 310 309 308 307 306 305
253 256 259 261 264 266 269 272 275 276 277 279 281 283 286 289 292 296 298 302 305 307 310 311 312 313 314 315 316 316 315 315 315 315 315 314 313 312 311 311 310 309 308
256 257 260 262 264 267 270 274 276 277 278 280 283 284 287 290 294 296 299 302 305 307 309 311 312 312 313 314 314 314 314 315 315 316 315 315 314 314 313 313 312 312 310
257 258 261 263 266 269 272 273 275 277 278 281 283 285 288 291 295 297 299 302 304 306 308 310 311 312 313 313 314 314 314 315 315 316 316 316 316 315 315 315 315 314 312
257 259 261 264 266 269 272 274 275 277 279 281 283 285 288 292 294 297 299 302 304 306 308 309 310 311 311 313 313 314 315 316 316 317 317 317 317 317 316 316 316 315 314
258 260 262 264 267 269 272 275 277 278 279 281 283 284 287 290 294 297 299 302 304 305 307 308 309 310 311 313 314 315 316 317 317 318 318 318 318 318 318 317 317 316 315
Height
5780 5784 5789 5792 5796 5798 5800 5802 5804 5805 5806 5807 5808 5809 5810 5810 5810 5809 5808 5808 5807 5806 5804 5804 5803 5802 5801 5799 5798 5796 5795 5794 5792 5791 5790 5790 5789 5789 5788 5786 5785 5785 5785
5774 5778 5782 5786 5789 5791 5793 5795 5796 5798 5799 5800 5801 5801 5802 5802 5802 5802 5800 5799 5797 5796 5795 5794 5793 5792 5790 5789 5788 5786 5784 5783 5781 5780 5778 5778 5778 5778 5776 5775 5774 5774 5773
5767 5772 5776 5779 5782 5784 5786 5787 5789 5790 5791 5792 5793 5793 5793 5794 5794 5793 5792 5791 5789 5787 5786 5784 5783 5781 5779 5778 5777 5775 5773 5771 5769 5767 5765 5765 5765 5765 5764 5763 5762 5761 5761
5760 5765 5768 5771 5774 5776 5778 5780 5781 5782 5783 5784 5784 5785 5785 5785 5785 5784 5783 5782 5780 5778 5776 5774 5772 5770 5768 5767 5765 5762 5760 5758 5756 5754 5753 5751 5750 5750 5750 5751 5750 5749 5749
5753 5757 5760 5763 5766 5768 5770 5771 5773 5774 5775 5776 5776 5776 5776 5776 5775 5774 5773 5772 5770 5768 5766 5763 5761 5759 5756 5754 5752 5749 5747 5744 5742 5740 5739 5737 5735 5735 5735 5736 5737 5736 5735
5745 5749 5752 5755 5758 5760 5762 5763 5765 5766 5767 5767 5767 5767 5767 5766 5765 5764 5763 5761 5759 5757 5755 5753 5750 5747 5744 5742 5739 5736 5733 5730 5727 5725 5723 5722 5721 5721 5720 5719 5721 5722 5722
5738 5741 5744 5747 5749 5751 5753 5755 5756 5757 5757 5758 5758 5758 5757 5756 5755 5754 5753 5751 5749 5746 5744 5741 5738 5735 5732 5728 5724 5721 5718 5714 5711 5708 5707 5706 5705 5705 5705 5704 5705 5706 5707
5730 5733 5736 5738 5741 5743 5744 5746 5747 5748 5748 5748 5748 5748 5748 5747 5746 5744 5742 5740 5738 5735 5732 5729 5726 5722 5718 5714 5710 5706 5702 5698 5695 5692 5690 5688 5688 5688 5689 5689 5690 5691 5692
5722 5725 5727 5730 5732 5734 5735 5736 5738 5738 5739 5739 5739 5738 5738 5737 5736 5734 5732 5730 5727 5724 5720 5717 5713 5708 5703 5699 5694 5689 5685 5681 5678 5675 5673 5671 5671 5671 5672 5673 5674 5676 5676
5714 5717 5719 5722 5723 5725 5726 5728 5729 5729 5729 5730 5729 5729 5728 5727 5726 5724 5722 5719 5716 5712 5708 5704 5699 5694 5689 5684 5678 5673 5668 5665 5662 5659 5658 5656 5656 5656 5656 5657 5659 5661 5662
5706 5709 5711 5713 5715 5717 5718 5719 5720 5720 5720 5720 5720 5720 5719 5717 5716 5714 5711 5708 5705 5701 5697 5692 5687 5681 5675 5669 5663 5658 5653 5649 5646 5644 5643 5642 5642 5642 5643 5644 5645 5647 5648
5698 5701 5703 5705 5707 5708 5710 5711 5711 5712 5712 5712 5711 5710 5709 5708 5706 5704 5701 5698 5695 5691 5686 5681 5675 5669 5663 5656 5650 5644 5640 5636 5633 5631 5630 5630 5630 5630 5630 5631 5633 5634 5635
5692 5694 5696 5698 5699 5701 5702 5703 5703 5703 5703 5703 5703 5702 5701 5699 5697 5695 5692 5689 5685 5681 5676 5671 5665 5658 5652 5645 5639 5634 5630 5626 5623 5621 5620 5620 5619 5619 5620 5621 5622 5623 5623
5685 5687 5689 5691 5692 5694 5694 5695 5695 5695 5695 5695 5694 5694 5692 5691 5689 5686 5684 5680 5676 5672 5667 5662 5656 5650 5643 5637 5631 5626 5622 5618 5615 5614 5612 5612 5611 5611 5611 5612 5612 5613 5613
5679 5681 5683 5684 5686 5686 5687 5688 5688 5688 5688 5687 5687 5686 5685 5683 5681 5679 5676 5672 5668 5664 5659 5654 5648 5642 5636 5630 5625 5620 5616 5612 5609 5607 5606 5605 5605 5604 5604 5604 5604 5604 5603
5673 5675 5676 5678 5679 5680 5680 5681 5681 5681 5680 5680 5680 5679 5678 5676 5674 5672 5668 5665 5661 5657 5652 5647 5642 5636 5630 5625 5620 5615 5611 5608 5605 5603 5601 5600 5599 5598 5598 5597 5596 5595 5594
5668 5669 5670 5671 5672 5673 5673 5674 5674 5674 5674 5673 5673 5672 5671 5669 5667 5665 5662 5658 5654 5650 5646 5641 5636 5631 5625 5620 5616 5611 5608 5604 5601 5599 5597 5596 5594 5593 5592 5590 5589 5587 5585
5662 5663 5664 5665 5666 5667 5667 5667 5667 5667 5667 5667 5667 5666 5664 5663 5661 5658 5655 5652 5648 5644 5640 5635 5630 5626 5621 5617 5612 5608 5605 5602 5599 5596 5594 5592 5590 5588 5586 5584 5581 5579 5576
5657 5658 5659 5660 5660 5661 5661 5661 5661 5661 5661 5661 5660 5659 5658 5656 5654 5652 5649 5646 5642 5638 5634 5630 5626 5621 5617 5613 5609 5605 5602 5599 5596 5593 5590 5588 5585 5582 5579 5577 5574 5570 5567
5651 5652 5653 5654 5655 5655 5655 5655 5655 5655 5655 5655 5654 5653 5652 5650 5648 5646 5643 5640 5637 5633 5629 5625 5621 5617 5613 5609 5606 5602 5599 5595 5592 5589 5586 5582 5579 5575 5572 5568 5565 5560 5556
5646 5647 5648 5649 5649 5650 5650 5650 5650 5650 5649 5649 5648 5647 5646 5644 5642 5640 5637 5634 5631 5628 5624 5621 5617 5613 5609 5605 5602 5598 5594 5591 5587 5584 5580 5576 5572 5568 5564 5559 5555 5550 5544
5641 5642 5643 5643 5644 5644 5645 5644 5644 5644 5643 5643 5642 5641 5640 5638 5636 5634 5632 5629 5626 5623 5619 5616 5612 5609 5605 5601 5597 5593 5589 5586 5582 5578 5573 5569 5564 5559 5555 5549 5544 5538 5532
5636 5637 5638 5638 5639 5639 5639 5639 5639 5638 5638 5637 5636 5635 5634 5633 5631 5629 5626 5624 5621 5618 5614 5611 5607 5604 5600 5596 5592 5588 5584 5579 5575 5571 5566 5561 5556 5551 5545 5539 5533 5527 5520
5631 5632 5632 5633 5633 5634 5634 5634 5633 5633 5632 5632 5631 5630 5629 5627 5625 5623 5621 5618 5615 5612 5609 5605 5602 5598 5594 5590 5586 5582 5577 5573 5568 5563 5558 5553 5547 5541 5535 5528 5522 5515 5508
5626 5627 5627 5628 5628 5628 5628 5628 5628 5627 5627 5626 5625 5624 5623 5621 5620 5617 5615 5612 5610 5606 5603 5600 5596 5592 5588 5584 5580 5575 5571 5566 5561 5555 5550 5544 5538 5531 5525 5518 5511 5503 5496
5620 5621 5622 5622 5623 5623 5623 5623 5622 5622 5621 5620 5620 5618 5617 5616 5614 5612 5609 5606 5603 5600 5597 5593 5590 5586 5582 5577 5573 5568 5563 5558 5553 5547 5541 5535 5528 5522 5515 5507 5499 5492 5484